JO-97
1 43803U 18099AX  24349.10079984  .00014131  00000-0  77526-3 0  9995
2 43803  97.4968  44.3084 0009460  49.6938 310.5119 15.14230338329851
Suomi 100
1 43804U 18099AY  24349.14823676  .00011684  00000-0  66840-3 0  9992
2 43804  97.5036  44.0271 0014939  48.1526 312.0978 15.12720741329825
ISAT
1 43879U 18111D   24348.99627311  .00019460  00000-0  91287-3 0  9992
2 43879  97.6072 254.7160 0013600  94.6200 265.6588 15.19621578324611
UWE-4
1 43880U 18111E   24349.48064846  .00017485  00000-0  87028-3 0  9990
2 43880  97.6007 254.6551 0016568 103.3545 256.9536 15.17543933324690
Sparrow
1 43881U 18111F   24348.50039747  .00019449  00000-0  89364-3 0  9992
2 43881  97.6189 256.5193 0010059 126.9146 233.3011 15.20375085326630
Prox-1
1 44339U 19036A   24349.48377998  .00015224  00000-0  22418-2 0  9992
2 44339  23.9966 139.8078 0006828 217.4795 142.5225 14.73711953291896
SONATE
1 44400U 19038Q   24348.75945921  .00047125  00000-0  82560-3 0  9999
2 44400  97.7118 352.8057 0011694 167.8963 192.2570 15.50377725301730
Taurus 1
1 44530U 19059C   24349.81131833  .00011225  00000-0  22895-2 0  9999
2 44530  98.5896 115.6532 0010753 219.3929 140.6489 14.61086954278088
Duchifat 3
1 44854U 19089C   24349.18828745  .00030842  00000-0  10794-2 0  9997
2 44854  36.9515  27.3906 0011412 171.3736 188.7212 15.28601586275634
TO-108
1 44881U 19093C   24349.78228282  .00001995  00000-0  24072-3 0  9990
2 44881  97.8133  63.0492 0015419  91.6258 268.6723 14.84831765269832
FloripaSat 1
1 44885U 19093G   24349.79320874  .00009515  00000-0  87902-3 0  9992
2 44885  97.8314  71.4158 0012562  78.4767 281.7863 14.94752239270307
RS-44
1 44909U 19096E   24348.45881154  .00000029  00000-0  74414-4 0  9993
2 44909  82.5215 345.6481 0217341 352.3793   7.4021 12.79736850231909
UPMSat 2
1 46276U 20061E   24349.15678825  .00035086  00000-0  69822-3 0  9990
2 46276  97.2742  54.4827 0001130 151.4517 208.6795 15.46850484237865
AmicalSat
1 46287U 20061R   24348.67179854  .00281117  00000-0  15746-2 0  9999
2 46287  97.3164  59.3726 0003028 275.2761  84.8160 15.78544376237384
SALSAT
1 46495U 20068K   24349.14347125  .00009994  00000-0  49115-3 0  9997
2 46495  97.8395 313.8156 0014722  60.0172 300.2520 15.18164703231565
CubeSX-Sirius-HSE
1 47951U 21022V   24349.82359175  .00059525  00000-0  13416-2 0  9998
2 47951  97.4408 249.3770 0007566 196.3056 163.7949 15.43028126206241
CubeSX-HSE
1 47952U 21022W   24349.75280942  .00054186  00000-0  12085-2 0  9995
2 47952  97.4403 249.4538 0007650 195.1856 164.9163 15.43365910206245
KSU-Cubesat
1 47954U 21022Y   24348.69354513  .00082874  00000-0  13283-2 0  9991
2 47954  97.4413 251.1123 0006320 173.2831 186.8507 15.52782172205978
GRBAlpha
1 47959U 21022AD  24349.77595862  .00054598  00000-0  12184-2 0  9991
2 47959  97.4404 249.6452 0007551 194.4227 165.6806 15.43347215205074
Orbicraft-Zorkiy
1 47960U 21022AE  24349.77100178  .00079747  00000-0  14496-2 0  9996
2 47960  97.4437 251.9398 0006303 181.0885 179.0353 15.49240197205885
TUBIN
1 48900U 21059X   24349.77580112  .00035603  00000-0  82019-3 0  9991
2 48900  97.6614 141.4018 0005294 163.8382 196.3035 15.42510667192631
LEDSAT
1 49069U 21073D   24349.64152405  .00035842  00000-0  94591-3 0  9993
2 49069  97.4162  60.8487 0014438   4.9493 355.1892 15.38279420184053
CUTE
1 49263U 21088D   24349.66681805  .00043033  00000-0  12760-2 0  9996
2 49263  97.4759  55.8924 0011173 160.9222 199.2441 15.34646662177160
TeikyoSat 4
1 49396U 21102B   24348.66819761  .00004053  00000-0  28004-3 0  9991
2 49396  97.4367  27.4136 0013540  28.7838 331.4134 15.06213620169754
Z-Sat
1 49399U 21102E   24349.79284256  .00006918  00000-0  40794-3 0  9996
2 49399  97.4077  30.6463 0019082   1.2297 358.8977 15.11721129170244
KOSEN 1
1 49402U 21102H   24349.06625708  .00009400  00000-0  48852-3 0  9994
2 49402  97.4000  32.1841 0016646 343.8871  16.1830 15.16172921170357
HO-113
1 50466U 21131B   24349.78921361  .00001244  00000-0  40601-3 0  9993
2 50466  98.5210  74.0217 0003286 315.8847  44.2079 14.40347120155995
IRIS-A
1 51044U 22002BN  24348.44854171  .00045174  00000-0  85151-3 0  9999
2 51044  97.3611  55.8913 0004769 109.5508 250.6258 15.48357771161989
Foresail-1
1 52766U 22057AL  24349.44468877  .00046761  00000-0  87221-3 0  9999
2 52766  97.5970 121.3136 0007224 209.5890 150.4952 15.48637684142173
SNUGLITE 2
1 52899U 22065F   24349.80344986  .00002359  00000-0  47735-3 0  9990
2 52899  98.1425 127.9046 0006724 313.0585  47.0053 14.62226739130642
IO-117
1 53106U 22080B   24346.40082951 -.00000003  00000-0  00000+0 0  9998
2 53106  70.1337 130.9545 0008301  67.0662 293.0873  6.42557702 56656
FO-118
1 54684U 22167C   24349.77363522  .00119764  00000-0  16082-2 0  9999
2 54684  97.6134 141.9957 0007273 234.5752 125.4824 15.57485441112107
SSS-2B
1 56184U 23054G   24349.14860389  .00732884  24382-3  15603-2 0  9990
2 56184  97.3315 252.7579 0007166 117.4943 242.7064 15.98672688 94143
SO-120
1 56992U 23084BU  24349.58974365  .00153169  00000-0  18544-2 0  9996
2 56992  97.5364 114.2518 0003015  93.9039 266.2562 15.60151618 83948
MRC-100
1 56993U 23084BV  24347.82740584  .00344208  00000-0  20040-2 0  9996
2 56993  97.5298 114.3284 0002516 312.2566  47.8486 15.77502466 83805
UmKA 1 (RS40S)
1 57172U 23091G   24349.77630415  .00009323  00000-0  54888-3 0  9995
2 57172  97.5873  40.2355 0014649 220.2634 139.7512 15.11755447 80731
CubeBel-2 (EU11S)
1 57175U 23091K   24349.76711415  .00013283  00000-0  73450-3 0  9993
2 57175  97.5876  40.5430 0012647 231.5389 128.4708 15.13936789 80758
VERONIKA
1 58261U 23174F   24349.79197842  .00044402  00000-0  12306-2 0  9996
2 58261  97.4413  64.4329 0008532 324.7766  35.2913 15.36783873 61284
KAFASAT
1 58317U 23174BP  24349.14403885  .00078633  00000-0  15379-2 0  9990
2 58317  97.4338  65.7592 0007470 293.9991  66.0476 15.47125997 61336
ENSO
1 58470U 23185J   24349.15152931  .00032311  00000-0  91902-3 0  9996
2 58470  97.4035  55.1600 0009734   5.4803 354.6546 15.36033492 57634
EIRSAT-1
1 58472U 23185L   24349.16978501  .00039640  00000-0  10400-2 0  9993
2 58472  97.4028  55.5564 0008986   4.4114 355.7208 15.38504490 57666
SONATE-2
1 59112U 24043Q   24348.57044946  .00017221  00000-0  65472-3 0  9991
2 59112  97.4951 111.6342 0013161  29.0245 331.1723 15.26772323 43091
MO-122
1 60209U 24125G   24348.81108909  .00019461  00000-0  73284-3 0  9996
2 60209  97.2978 197.3091 0024530  53.3745 306.9745 15.26853695 24743
GRBBeta
1 60237U 24128C   24348.57357512  .00006554  00000-0  53780-3 0  9997
2 60237  61.9938 338.9350 0031280  13.2222 346.9680 14.99783823 23479
Curium One
1 60242U 24128H   24348.00128526  .00010302  00000-0  82193-3 0  9998
2 60242  61.9842 340.9701 0031388   5.2424 354.8987 15.00404646 23391
ROBUSTA-3A
1 60243U 24128J   24348.42592256  .00009413  00000-0  75877-3 0  9992
2 60243  61.9908 339.8190 0029578   3.1702 356.9570 15.00129497 23454
CatSat
1 60246U 24125J   24347.82104925  .00014393  00000-0  56601-3 0  9994
2 60246  97.2783 197.0899 0048481  10.8736 349.3538 15.24650651 22698
CySat-1
1 61501U 98067WZ  24349.79499432  .00340859  00000-0  18574-2 0  9998
2 61501  51.6276 134.5179 0013465 293.6975  66.2612 15.78294788 10577
AO-123
1 61781U 24199AY  24349.77593582  .00012619  00000-0  52236-3 0  9996
2 61781  97.3795 213.9420 0019150 100.4459 259.8938 15.23902309 49916
